Location: Colebrook
(42.0017°N, 73.0973°W)
Time: 16:47:40
(UTC-05:00)

Vanguard 2 - Pass Details

Date: 25 October 2021
Orbit: 554 x 2936 km, 32.9° (Epoch: 04 December)

Event Time Altitude Azimuth Distance (km) Brightness Sun altitude
Exits shadow 04:08:37 42° 156° (SSE) 1,745 9.2 -35.3°
Drops below altitude 10° 04:13:34 10° 112° (ESE) 2,754 10.9 -34.5°
Sets 04:15:47 0° 106° (ESE) 3,476 11.7 -34.1°
